Year,Month,Day,Hour,Minute,Value (Times are PST for temperature in C)
2009,06,23,00,00,11.60
2009,06,23,00,01,11.60
2009,06,23,00,02,11.60
2009,06,23,00,03,11.60
2009,06,23,00,04,11.60
2009,06,23,00,05,11.50
2009,06,23,00,06,11.50
2009,06,23,00,07,11.50
2009,06,23,00,08,11.50
2009,06,23,00,09,11.50
2009,06,23,00,10,11.50
2009,06,23,00,11,11.40
2009,06,23,00,12,11.40
2009,06,23,00,13,11.40
2009,06,23,00,14,11.40
2009,06,23,00,15,11.40
2009,06,23,00,16,11.40
2009,06,23,00,17,11.40
2009,06,23,00,18,11.40
2009,06,23,00,19,11.40
2009,06,23,00,20,11.40
2009,06,23,00,21,11.40
2009,06,23,00,22,11.40
2009,06,23,00,23,11.40
2009,06,23,00,24,11.40
2009,06,23,00,25,11.40
2009,06,23,00,26,11.40
2009,06,23,00,27,11.40
2009,06,23,00,28,11.40
2009,06,23,00,29,11.40
2009,06,23,00,30,11.40
2009,06,23,00,31,11.40
2009,06,23,00,32,11.30
2009,06,23,00,33,11.30
2009,06,23,00,34,11.30
2009,06,23,00,35,11.30
2009,06,23,00,36,11.30
2009,06,23,00,37,11.30
2009,06,23,00,38,11.30
2009,06,23,00,39,11.30
2009,06,23,00,40,11.30
2009,06,23,00,41,11.30
2009,06,23,00,42,11.30
2009,06,23,00,43,11.30
2009,06,23,00,44,11.30
2009,06,23,00,45,11.30
2009,06,23,00,46,11.30
2009,06,23,00,47,11.30
2009,06,23,00,48,11.20
2009,06,23,00,49,11.20
2009,06,23,00,50,11.20
2009,06,23,00,51,11.20
2009,06,23,00,52,11.20
2009,06,23,00,53,11.20
2009,06,23,00,54,11.20
2009,06,23,00,55,11.20
2009,06,23,00,56,11.20
2009,06,23,00,57,11.20
2009,06,23,00,58,11.10
2009,06,23,00,59,11.10
2009,06,23,01,00,11.10
2009,06,23,01,01,11.10
2009,06,23,01,02,11.10
2009,06,23,01,03,11.10
2009,06,23,01,04,11.10
2009,06,23,01,05,11.10
2009,06,23,01,06,11.10
2009,06,23,01,07,11.10
2009,06,23,01,08,11.10
2009,06,23,01,09,11.10
2009,06,23,01,10,11.10
2009,06,23,01,11,11.00
2009,06,23,01,12,10.90
2009,06,23,01,13,10.90
2009,06,23,01,14,10.90
2009,06,23,01,15,10.90
2009,06,23,01,16,10.90
2009,06,23,01,17,10.90
2009,06,23,01,18,10.90
2009,06,23,01,19,10.90
2009,06,23,01,20,10.90
2009,06,23,01,21,10.90
2009,06,23,01,22,10.90
2009,06,23,01,23,10.90
2009,06,23,01,24,10.80
2009,06,23,01,25,10.80
2009,06,23,01,26,10.80
2009,06,23,01,27,10.80
2009,06,23,01,28,10.70
2009,06,23,01,29,10.70
2009,06,23,01,30,10.70
2009,06,23,01,31,10.70
2009,06,23,01,32,10.70
2009,06,23,01,33,10.70
2009,06,23,01,34,10.70
2009,06,23,01,35,10.70
2009,06,23,01,36,10.70
2009,06,23,01,37,10.70
2009,06,23,01,38,10.70
2009,06,23,01,39,10.70
2009,06,23,01,40,10.70
2009,06,23,01,41,10.70
2009,06,23,01,42,10.70
2009,06,23,01,43,10.70
2009,06,23,01,44,10.70
2009,06,23,01,45,10.60
2009,06,23,01,46,10.60
2009,06,23,01,47,10.60
2009,06,23,01,48,10.60
2009,06,23,01,49,10.60
2009,06,23,01,50,10.60
2009,06,23,01,51,10.60
2009,06,23,01,52,10.60
2009,06,23,01,53,10.60
2009,06,23,01,54,10.60
2009,06,23,01,55,10.60
2009,06,23,01,56,10.60
2009,06,23,01,57,10.60
2009,06,23,01,58,10.60
2009,06,23,01,59,10.60
2009,06,23,02,00,10.60
2009,06,23,02,01,10.50
2009,06,23,02,02,10.40
2009,06,23,02,03,10.40
2009,06,23,02,04,10.40
2009,06,23,02,05,10.40
2009,06,23,02,06,10.40
2009,06,23,02,07,10.40
2009,06,23,02,08,10.40
2009,06,23,02,09,10.40
2009,06,23,02,10,10.40
2009,06,23,02,11,10.40
2009,06,23,02,12,10.40
2009,06,23,02,13,10.40
2009,06,23,02,14,10.40
2009,06,23,02,15,10.40
2009,06,23,02,16,10.40
2009,06,23,02,17,10.30
2009,06,23,02,18,10.30
2009,06,23,02,19,10.30
2009,06,23,02,20,10.30
2009,06,23,02,21,10.30
2009,06,23,02,22,10.30
2009,06,23,02,23,10.30
2009,06,23,02,24,10.30
2009,06,23,02,25,10.20
2009,06,23,02,26,10.20
2009,06,23,02,27,10.20
2009,06,23,02,28,10.20
2009,06,23,02,29,10.20
2009,06,23,02,30,10.20
2009,06,23,02,31,10.10
2009,06,23,02,32,10.10
2009,06,23,02,33,10.10
2009,06,23,02,34,10.10
2009,06,23,02,35,10.10
2009,06,23,02,36,10.10
2009,06,23,02,37,10.10
2009,06,23,02,38,10.10
2009,06,23,02,39,10.10
2009,06,23,02,40,10.10
2009,06,23,02,41,10.10
2009,06,23,02,42,10.10
2009,06,23,02,43,10.10
2009,06,23,02,44,10.00
2009,06,23,02,45,9.90
2009,06,23,02,46,9.90
2009,06,23,02,47,9.90
2009,06,23,02,48,9.90
2009,06,23,02,49,9.90
2009,06,23,02,50,9.90
2009,06,23,02,51,9.90
2009,06,23,02,52,9.90
2009,06,23,02,53,9.90
2009,06,23,02,54,9.90
2009,06,23,02,55,9.80
2009,06,23,02,56,9.80
2009,06,23,02,57,9.80
2009,06,23,02,58,9.80
2009,06,23,02,59,9.80
2009,06,23,03,00,9.80
2009,06,23,03,01,9.80
2009,06,23,03,02,9.80
2009,06,23,03,03,9.80
2009,06,23,03,04,9.70
2009,06,23,03,05,9.70
2009,06,23,03,06,9.70
2009,06,23,03,07,9.70
2009,06,23,03,08,9.70
2009,06,23,03,09,9.70
2009,06,23,03,10,9.70
2009,06,23,03,11,9.70
2009,06,23,03,12,9.70
2009,06,23,03,13,9.70
2009,06,23,03,14,9.70
2009,06,23,03,15,9.70
2009,06,23,03,16,9.70
2009,06,23,03,17,9.70
2009,06,23,03,18,9.70
2009,06,23,03,19,9.70
2009,06,23,03,20,9.70
2009,06,23,03,21,9.70
2009,06,23,03,22,9.70
2009,06,23,03,23,9.70
2009,06,23,03,24,9.70
2009,06,23,03,25,9.70
2009,06,23,03,26,9.60
2009,06,23,03,27,9.60
2009,06,23,03,28,9.60
2009,06,23,03,29,9.60
2009,06,23,03,30,9.60
2009,06,23,03,31,9.60
2009,06,23,03,32,9.60
2009,06,23,03,33,9.60
2009,06,23,03,34,9.60
2009,06,23,03,35,9.60
2009,06,23,03,36,9.60
2009,06,23,03,37,9.60
2009,06,23,03,38,9.60
2009,06,23,03,39,9.60
2009,06,23,03,40,9.50
2009,06,23,03,41,9.50
2009,06,23,03,42,9.50
2009,06,23,03,43,9.50
2009,06,23,03,44,9.40
2009,06,23,03,45,9.40
2009,06,23,03,46,9.40
2009,06,23,03,47,9.40
2009,06,23,03,48,9.40
2009,06,23,03,49,9.40
2009,06,23,03,50,9.40
2009,06,23,03,51,9.30
2009,06,23,03,52,9.30
2009,06,23,03,53,9.30
2009,06,23,03,54,9.30
2009,06,23,03,55,9.30
2009,06,23,03,56,9.30
2009,06,23,03,57,9.20
2009,06,23,03,58,9.20
2009,06,23,03,59,9.20
2009,06,23,04,00,9.20
2009,06,23,04,01,9.20
2009,06,23,04,02,9.20
2009,06,23,04,03,9.20
2009,06,23,04,04,9.10
2009,06,23,04,05,9.10
2009,06,23,04,06,9.10
2009,06,23,04,07,9.10
2009,06,23,04,08,9.00
2009,06,23,04,09,9.00
2009,06,23,04,10,9.00
2009,06,23,04,11,9.00
2009,06,23,04,12,8.90
2009,06,23,04,13,8.90
2009,06,23,04,14,9.00
2009,06,23,04,15,9.00
2009,06,23,04,16,9.00
2009,06,23,04,17,9.00
2009,06,23,04,18,9.00
2009,06,23,04,19,9.00
2009,06,23,04,20,9.00
2009,06,23,04,21,9.00
2009,06,23,04,22,8.90
2009,06,23,04,23,8.90
2009,06,23,04,24,8.90
2009,06,23,04,25,8.80
2009,06,23,04,26,8.80
2009,06,23,04,27,8.70
2009,06,23,04,28,8.70
2009,06,23,04,29,8.70
2009,06,23,04,30,8.70
2009,06,23,04,31,8.70
2009,06,23,04,32,8.70
2009,06,23,04,33,8.70
2009,06,23,04,34,8.70
2009,06,23,04,35,8.70
2009,06,23,04,36,8.70
2009,06,23,04,37,8.70
2009,06,23,04,38,8.70
2009,06,23,04,39,8.70
2009,06,23,04,40,8.70
2009,06,23,04,41,8.70
2009,06,23,04,42,8.70
2009,06,23,04,43,8.70
2009,06,23,04,44,8.70
2009,06,23,04,45,8.70
2009,06,23,04,46,8.70
2009,06,23,04,47,8.70
2009,06,23,04,48,8.70
2009,06,23,04,49,8.70
2009,06,23,04,50,8.70
2009,06,23,04,51,8.70
2009,06,23,04,52,8.70
2009,06,23,04,53,8.70
2009,06,23,04,54,8.70
2009,06,23,04,55,8.70
2009,06,23,04,56,8.70
2009,06,23,04,57,8.70
2009,06,23,04,58,8.70
2009,06,23,04,59,8.70
2009,06,23,05,00,8.60
2009,06,23,05,01,8.60
2009,06,23,05,02,8.60
2009,06,23,05,03,8.60
2009,06,23,05,04,8.50
2009,06,23,05,05,8.50
2009,06,23,05,06,8.50
2009,06,23,05,07,8.50
2009,06,23,05,08,8.40
2009,06,23,05,09,8.40
2009,06,23,05,10,8.40
2009,06,23,05,11,8.40
2009,06,23,05,12,8.30
2009,06,23,05,13,8.30
2009,06,23,05,14,8.30
2009,06,23,05,15,8.30
2009,06,23,05,16,8.30
2009,06,23,05,17,8.30
2009,06,23,05,18,8.30
2009,06,23,05,19,8.20
2009,06,23,05,20,8.20
2009,06,23,05,21,8.20
2009,06,23,05,22,8.20
2009,06,23,05,23,8.20
2009,06,23,05,24,8.20
2009,06,23,05,25,8.20
2009,06,23,05,26,8.20
2009,06,23,05,27,8.20
2009,06,23,05,28,8.20
2009,06,23,05,29,8.20
2009,06,23,05,30,8.20
2009,06,23,05,31,8.20
2009,06,23,05,32,8.20
2009,06,23,05,33,8.20
2009,06,23,05,34,8.20
2009,06,23,05,35,8.20
2009,06,23,05,36,8.20
2009,06,23,05,37,8.20
2009,06,23,05,38,8.20
2009,06,23,05,39,8.20
2009,06,23,05,40,8.20
2009,06,23,05,41,8.20
2009,06,23,05,42,8.20
2009,06,23,05,43,8.30
2009,06,23,05,44,8.30
2009,06,23,05,45,8.30
2009,06,23,05,46,8.30
2009,06,23,05,47,8.30
2009,06,23,05,48,8.30
2009,06,23,05,49,8.30
2009,06,23,05,50,8.30
2009,06,23,05,51,8.30
2009,06,23,05,52,8.30
2009,06,23,05,53,8.40
2009,06,23,05,54,8.40
2009,06,23,05,55,8.50
2009,06,23,05,56,8.50
2009,06,23,05,57,8.50
2009,06,23,05,58,8.60
2009,06,23,05,59,8.60
2009,06,23,06,00,8.60
2009,06,23,06,01,8.60
2009,06,23,06,02,8.60
2009,06,23,06,03,8.60
2009,06,23,06,04,8.70
2009,06,23,06,05,8.70
2009,06,23,06,06,8.70
2009,06,23,06,07,8.80
2009,06,23,06,08,8.80
2009,06,23,06,09,8.90
2009,06,23,06,10,8.90
2009,06,23,06,11,8.90
2009,06,23,06,12,9.00
2009,06,23,06,13,9.00
2009,06,23,06,14,9.00
2009,06,23,06,15,9.00
2009,06,23,06,16,9.00
2009,06,23,06,17,9.00
2009,06,23,06,18,9.00
2009,06,23,06,19,9.10
2009,06,23,06,20,9.10
2009,06,23,06,21,9.20
2009,06,23,06,22,9.20
2009,06,23,06,23,9.20
2009,06,23,06,24,9.20
2009,06,23,06,25,9.30
2009,06,23,06,26,9.30
2009,06,23,06,27,9.40
2009,06,23,06,28,9.40
2009,06,23,06,29,9.50
2009,06,23,06,30,9.50
2009,06,23,06,31,9.60
2009,06,23,06,32,9.60
2009,06,23,06,33,9.60
2009,06,23,06,34,9.60
2009,06,23,06,35,9.70
2009,06,23,06,36,9.70
2009,06,23,06,37,9.70
2009,06,23,06,38,9.80
2009,06,23,06,39,9.80
2009,06,23,06,40,9.90
2009,06,23,06,41,9.90
2009,06,23,06,42,9.90
2009,06,23,06,43,10.00
2009,06,23,06,44,10.10
2009,06,23,06,45,10.10
2009,06,23,06,46,10.10
2009,06,23,06,47,10.20
2009,06,23,06,48,10.20
2009,06,23,06,49,10.30
2009,06,23,06,50,10.40
2009,06,23,06,51,10.40
2009,06,23,06,52,10.40
2009,06,23,06,53,10.40
2009,06,23,06,54,10.40
2009,06,23,06,55,10.60
2009,06,23,06,56,10.60
2009,06,23,06,57,10.60
2009,06,23,06,58,10.60
2009,06,23,06,59,10.70
2009,06,23,07,00,10.80
2009,06,23,07,01,10.80
2009,06,23,07,02,10.90
2009,06,23,07,03,10.90
2009,06,23,07,04,10.90
2009,06,23,07,05,10.90
2009,06,23,07,06,11.00
2009,06,23,07,07,11.10
2009,06,23,07,08,11.10
2009,06,23,07,09,11.10
2009,06,23,07,10,11.20
2009,06,23,07,11,11.20
2009,06,23,07,12,11.30
2009,06,23,07,13,11.30
2009,06,23,07,14,11.30
2009,06,23,07,15,11.40
2009,06,23,07,16,11.40
2009,06,23,07,17,11.40
2009,06,23,07,18,11.50
2009,06,23,07,19,11.60
2009,06,23,07,20,11.60
2009,06,23,07,21,11.70
2009,06,23,07,22,11.80
2009,06,23,07,23,11.90
2009,06,23,07,24,12.00
2009,06,23,07,25,12.10
2009,06,23,07,26,12.20
2009,06,23,07,27,12.30
2009,06,23,07,28,12.30
2009,06,23,07,29,12.30
2009,06,23,07,30,12.30
2009,06,23,07,31,12.30
2009,06,23,07,32,12.30
2009,06,23,07,33,12.30
2009,06,23,07,34,12.30
2009,06,23,07,35,12.30
2009,06,23,07,36,12.20
2009,06,23,07,37,12.10
2009,06,23,07,38,12.10
2009,06,23,07,39,12.00
2009,06,23,07,40,12.00
2009,06,23,07,41,12.00
2009,06,23,07,42,12.00
2009,06,23,07,43,12.00
2009,06,23,07,44,12.10
2009,06,23,07,45,12.10
2009,06,23,07,46,12.20
2009,06,23,07,47,12.20
2009,06,23,07,48,12.20
2009,06,23,07,49,12.20
2009,06,23,07,50,12.10
2009,06,23,07,51,12.10
2009,06,23,07,52,12.10
2009,06,23,07,53,12.10
2009,06,23,07,54,12.10
2009,06,23,07,55,12.10
2009,06,23,07,56,12.10
2009,06,23,07,57,12.10
2009,06,23,07,58,12.10
2009,06,23,07,59,12.00
2009,06,23,08,00,12.00
2009,06,23,08,01,12.00
2009,06,23,08,02,12.10
2009,06,23,08,03,12.20
2009,06,23,08,04,12.30
2009,06,23,08,05,12.40
2009,06,23,08,06,12.30
2009,06,23,08,07,12.30
2009,06,23,08,08,12.30
2009,06,23,08,09,12.30
2009,06,23,08,10,12.30
2009,06,23,08,11,12.30
2009,06,23,08,12,12.20
2009,06,23,08,13,12.20
2009,06,23,08,14,12.20
2009,06,23,08,15,12.10
2009,06,23,08,16,12.10
2009,06,23,08,17,12.10
2009,06,23,08,18,12.10
2009,06,23,08,19,12.10
2009,06,23,08,20,12.20
2009,06,23,08,21,12.30
2009,06,23,08,22,12.40
2009,06,23,08,23,12.40
2009,06,23,08,24,12.40
2009,06,23,08,25,12.40
2009,06,23,08,26,12.30
2009,06,23,08,27,12.30
2009,06,23,08,28,12.40
2009,06,23,08,29,12.30
2009,06,23,08,30,12.30
2009,06,23,08,31,12.30
2009,06,23,08,32,12.30
2009,06,23,08,33,12.40
2009,06,23,08,34,12.40
2009,06,23,08,35,12.40
2009,06,23,08,36,12.40
2009,06,23,08,37,12.40
2009,06,23,08,38,12.50
2009,06,23,08,39,12.50
2009,06,23,08,40,12.70
2009,06,23,08,41,12.70
2009,06,23,08,42,12.70
2009,06,23,08,43,12.80
2009,06,23,08,44,12.80
2009,06,23,08,45,12.80
2009,06,23,08,46,12.90
2009,06,23,08,47,12.90
2009,06,23,08,48,12.90
2009,06,23,08,49,13.00
2009,06,23,08,50,13.00
2009,06,23,08,51,13.10
2009,06,23,08,52,13.20
2009,06,23,08,53,13.30
2009,06,23,08,54,13.40
2009,06,23,08,55,13.50
2009,06,23,08,56,13.40
2009,06,23,08,57,13.30
2009,06,23,08,58,13.20
2009,06,23,08,59,13.10
2009,06,23,09,00,13.00
2009,06,23,09,01,13.00
2009,06,23,09,02,13.10
2009,06,23,09,03,13.10
2009,06,23,09,04,13.00
2009,06,23,09,05,13.00
2009,06,23,09,06,13.00
2009,06,23,09,07,12.90
2009,06,23,09,08,12.80
2009,06,23,09,09,12.80
2009,06,23,09,10,12.70
2009,06,23,09,11,12.70
2009,06,23,09,12,12.80
2009,06,23,09,13,12.80
2009,06,23,09,14,12.80
2009,06,23,09,15,12.70
2009,06,23,09,16,12.60
2009,06,23,09,17,12.60
2009,06,23,09,18,12.50
2009,06,23,09,19,12.40
2009,06,23,09,20,12.40
2009,06,23,09,21,12.40
2009,06,23,09,22,12.30
2009,06,23,09,23,12.30
2009,06,23,09,24,12.40
2009,06,23,09,25,12.40
2009,06,23,09,26,12.50
2009,06,23,09,27,12.50
2009,06,23,09,28,12.50
2009,06,23,09,29,12.40
2009,06,23,09,30,12.30
2009,06,23,09,31,12.30
2009,06,23,09,32,12.40
2009,06,23,09,33,12.50
2009,06,23,09,34,12.60
2009,06,23,09,35,12.60
2009,06,23,09,36,12.70
2009,06,23,09,37,12.80
2009,06,23,09,38,12.80
2009,06,23,09,39,12.80
2009,06,23,09,40,12.90
2009,06,23,09,41,12.90
2009,06,23,09,42,13.00
2009,06,23,09,43,13.00
2009,06,23,09,44,13.10
2009,06,23,09,45,13.00
2009,06,23,09,46,13.10
2009,06,23,09,47,13.10
2009,06,23,09,48,12.90
2009,06,23,09,49,12.90
2009,06,23,09,50,12.90
2009,06,23,09,51,12.90
2009,06,23,09,52,12.80
2009,06,23,09,53,12.80
2009,06,23,09,54,12.80
2009,06,23,09,55,12.90
2009,06,23,09,56,12.90
2009,06,23,09,57,12.80
2009,06,23,09,58,12.80
2009,06,23,09,59,12.80
2009,06,23,10,00,12.80
2009,06,23,10,01,12.90
2009,06,23,10,02,13.00
2009,06,23,10,03,13.10
2009,06,23,10,04,13.30
2009,06,23,10,05,13.30
2009,06,23,10,06,13.30
2009,06,23,10,07,13.40
2009,06,23,10,08,13.50
2009,06,23,10,09,13.60
2009,06,23,10,10,13.70
2009,06,23,10,11,13.70
2009,06,23,10,12,13.70
2009,06,23,10,13,13.60
2009,06,23,10,14,13.60
2009,06,23,10,15,13.60
2009,06,23,10,16,13.60
2009,06,23,10,17,13.60
2009,06,23,10,18,13.60
2009,06,23,10,19,13.60
2009,06,23,10,20,13.50
2009,06,23,10,21,13.60
2009,06,23,10,22,13.80
2009,06,23,10,23,13.90
2009,06,23,10,24,14.10
2009,06,23,10,25,14.20
2009,06,23,10,26,14.40
2009,06,23,10,27,14.40
2009,06,23,10,28,14.30
2009,06,23,10,29,14.20
2009,06,23,10,30,14.20
2009,06,23,10,31,14.30
2009,06,23,10,32,14.40
2009,06,23,10,33,14.50
2009,06,23,10,34,14.40
2009,06,23,10,35,14.30
2009,06,23,10,36,14.30
2009,06,23,10,37,14.30
2009,06,23,10,38,14.30
2009,06,23,10,39,14.20
2009,06,23,10,40,14.20
2009,06,23,10,41,14.20
2009,06,23,10,42,14.20
2009,06,23,10,43,14.30
2009,06,23,10,44,14.30
2009,06,23,10,45,14.30
2009,06,23,10,46,14.40
2009,06,23,10,47,14.50
2009,06,23,10,48,14.60
2009,06,23,10,49,14.70
2009,06,23,10,50,14.80
2009,06,23,10,51,14.80
2009,06,23,10,52,14.80
2009,06,23,10,53,14.90
2009,06,23,10,54,14.90
2009,06,23,10,55,14.80
2009,06,23,10,56,14.80
2009,06,23,10,57,14.80
2009,06,23,10,58,14.80
2009,06,23,10,59,14.80
2009,06,23,11,00,14.90
2009,06,23,11,01,15.00
2009,06,23,11,02,15.10
2009,06,23,11,03,15.10
2009,06,23,11,04,15.20
2009,06,23,11,05,15.30
2009,06,23,11,06,15.50
2009,06,23,11,07,15.60
2009,06,23,11,08,15.80
2009,06,23,11,09,15.70
2009,06,23,11,10,15.60
2009,06,23,11,11,15.40
2009,06,23,11,12,15.30
2009,06,23,11,13,15.30
2009,06,23,11,14,15.30
2009,06,23,11,15,15.20
2009,06,23,11,16,15.10
2009,06,23,11,17,15.00
2009,06,23,11,18,15.00
2009,06,23,11,19,15.00
2009,06,23,11,20,15.00
2009,06,23,11,21,15.00
2009,06,23,11,22,15.10
2009,06,23,11,23,15.30
2009,06,23,11,24,15.30
2009,06,23,11,25,15.30
2009,06,23,11,26,15.30
2009,06,23,11,27,15.20
2009,06,23,11,28,15.20
2009,06,23,11,29,15.30
2009,06,23,11,30,15.30
2009,06,23,11,31,15.40
2009,06,23,11,32,15.40
2009,06,23,11,33,15.40
2009,06,23,11,34,15.50
2009,06,23,11,35,15.40
2009,06,23,11,36,15.40
2009,06,23,11,37,15.40
2009,06,23,11,38,15.50
2009,06,23,11,39,15.60
2009,06,23,11,40,15.70
2009,06,23,11,41,15.70
2009,06,23,11,42,15.60
2009,06,23,11,43,15.70
2009,06,23,11,44,15.90
2009,06,23,11,45,16.00
2009,06,23,11,46,16.10
2009,06,23,11,47,16.00
2009,06,23,11,48,15.80
2009,06,23,11,49,15.70
2009,06,23,11,50,15.60
2009,06,23,11,51,15.60
2009,06,23,11,52,15.50
2009,06,23,11,53,15.50
2009,06,23,11,54,15.40
2009,06,23,11,55,15.10
2009,06,23,11,56,15.10
2009,06,23,11,57,15.10
2009,06,23,11,58,15.20
2009,06,23,11,59,15.30
2009,06,23,12,00,15.40
2009,06,23,12,01,15.40
2009,06,23,12,02,15.40
2009,06,23,12,03,15.40
2009,06,23,12,04,15.40
2009,06,23,12,05,15.50
2009,06,23,12,06,15.70
2009,06,23,12,07,15.60
2009,06,23,12,08,15.50
2009,06,23,12,09,15.40
2009,06,23,12,10,15.50
2009,06,23,12,11,15.40
2009,06,23,12,12,15.40
2009,06,23,12,13,15.40
2009,06,23,12,14,15.50
2009,06,23,12,15,15.60
2009,06,23,12,16,15.60
2009,06,23,12,17,15.60
2009,06,23,12,18,15.50
2009,06,23,12,19,15.50
2009,06,23,12,20,15.70
2009,06,23,12,21,15.80
2009,06,23,12,22,16.10
2009,06,23,12,23,16.20
2009,06,23,12,24,16.10
2009,06,23,12,25,16.10
2009,06,23,12,26,16.10
2009,06,23,12,27,16.10
2009,06,23,12,28,16.00
2009,06,23,12,29,15.80
2009,06,23,12,30,15.80
2009,06,23,12,31,15.80
2009,06,23,12,32,15.80
2009,06,23,12,33,15.80
2009,06,23,12,34,15.80
2009,06,23,12,35,15.90
2009,06,23,12,36,16.10
2009,06,23,12,37,16.20
2009,06,23,12,38,16.40
2009,06,23,12,39,16.40
2009,06,23,12,40,16.40
2009,06,23,12,41,16.50
2009,06,23,12,42,16.50
2009,06,23,12,43,16.40
2009,06,23,12,44,16.40
2009,06,23,12,45,16.40
2009,06,23,12,46,16.40
2009,06,23,12,47,16.40
2009,06,23,12,48,16.40
2009,06,23,12,49,16.40
2009,06,23,12,50,16.30
2009,06,23,12,51,16.30
2009,06,23,12,52,16.30
2009,06,23,12,53,16.30
2009,06,23,12,54,16.30
2009,06,23,12,55,16.40
2009,06,23,12,56,16.50
2009,06,23,12,57,16.60
2009,06,23,12,58,16.60
2009,06,23,12,59,16.70
2009,06,23,13,00,16.70
2009,06,23,13,01,16.60
2009,06,23,13,02,16.70
2009,06,23,13,03,16.70
2009,06,23,13,04,16.70
2009,06,23,13,05,16.70
2009,06,23,13,06,16.80
2009,06,23,13,07,16.80
2009,06,23,13,08,16.80
2009,06,23,13,09,16.80
2009,06,23,13,10,16.80
2009,06,23,13,11,16.70
2009,06,23,13,12,16.70
2009,06,23,13,13,16.70
2009,06,23,13,14,16.70
2009,06,23,13,15,16.70
2009,06,23,13,16,16.70
2009,06,23,13,17,16.70
2009,06,23,13,18,16.70
2009,06,23,13,19,16.70
2009,06,23,13,20,16.70
2009,06,23,13,21,16.70
2009,06,23,13,22,16.80
2009,06,23,13,23,16.90
2009,06,23,13,24,17.00
2009,06,23,13,25,17.00
2009,06,23,13,26,16.90
2009,06,23,13,27,16.80
2009,06,23,13,28,16.90
2009,06,23,13,29,17.00
2009,06,23,13,30,17.10
2009,06,23,13,31,17.00
2009,06,23,13,32,16.90
2009,06,23,13,33,16.90
2009,06,23,13,34,17.00
2009,06,23,13,35,17.00
2009,06,23,13,36,17.10
2009,06,23,13,37,17.20
2009,06,23,13,38,17.20
2009,06,23,13,39,17.40
2009,06,23,13,40,17.50
2009,06,23,13,41,17.70
2009,06,23,13,42,17.80
2009,06,23,13,43,17.90
2009,06,23,13,44,17.90
2009,06,23,13,45,18.00
2009,06,23,13,46,18.10
2009,06,23,13,47,18.10
2009,06,23,13,48,17.90
2009,06,23,13,49,17.90
2009,06,23,13,50,17.80
2009,06,23,13,51,17.70
2009,06,23,13,52,17.70
2009,06,23,13,53,17.60
2009,06,23,13,54,17.60
2009,06,23,13,55,17.60
2009,06,23,13,56,17.60
2009,06,23,13,57,17.50
2009,06,23,13,58,17.50
2009,06,23,13,59,17.60
2009,06,23,14,00,17.70
2009,06,23,14,01,17.90
2009,06,23,14,02,17.70
2009,06,23,14,03,17.60
2009,06,23,14,04,17.50
2009,06,23,14,05,17.60
2009,06,23,14,06,17.60
2009,06,23,14,07,17.60
2009,06,23,14,08,17.50
2009,06,23,14,09,17.50
2009,06,23,14,10,17.60
2009,06,23,14,11,17.60
2009,06,23,14,12,17.50
2009,06,23,14,13,17.50
2009,06,23,14,14,17.60
2009,06,23,14,15,17.60
2009,06,23,14,16,17.60
2009,06,23,14,17,17.50
2009,06,23,14,18,17.40
2009,06,23,14,19,17.30
2009,06,23,14,20,17.40
2009,06,23,14,21,17.50
2009,06,23,14,22,17.80
2009,06,23,14,23,17.90
2009,06,23,14,24,18.00
2009,06,23,14,25,17.90
2009,06,23,14,26,17.80
2009,06,23,14,27,17.70
2009,06,23,14,28,17.70
2009,06,23,14,29,17.70
2009,06,23,14,30,17.70
2009,06,23,14,31,17.50
2009,06,23,14,32,17.60
2009,06,23,14,33,17.70
2009,06,23,14,34,17.80
2009,06,23,14,35,17.80
2009,06,23,14,36,17.80
2009,06,23,14,37,17.80
2009,06,23,14,38,17.90
2009,06,23,14,39,17.90
2009,06,23,14,40,17.90
2009,06,23,14,41,17.90
2009,06,23,14,42,17.90
2009,06,23,14,43,18.00
2009,06,23,14,44,18.10
2009,06,23,14,45,18.10
2009,06,23,14,46,18.20
2009,06,23,14,47,18.20
2009,06,23,14,48,18.20
2009,06,23,14,49,18.10
2009,06,23,14,50,18.10
2009,06,23,14,51,18.20
2009,06,23,14,52,18.00
2009,06,23,14,53,17.90
2009,06,23,14,54,17.90
2009,06,23,14,55,17.90
2009,06,23,14,56,17.90
2009,06,23,14,57,18.10
2009,06,23,14,58,18.20
2009,06,23,14,59,18.20
2009,06,23,15,00,18.20
2009,06,23,15,01,18.30
2009,06,23,15,02,18.30
2009,06,23,15,03,18.30
2009,06,23,15,04,18.30
2009,06,23,15,05,18.30
2009,06,23,15,06,18.20
2009,06,23,15,07,18.20
2009,06,23,15,08,18.00
2009,06,23,15,09,17.90
2009,06,23,15,10,17.80
2009,06,23,15,11,17.80
2009,06,23,15,12,17.80
2009,06,23,15,13,17.60
2009,06,23,15,14,17.50
2009,06,23,15,15,17.50
2009,06,23,15,16,17.40
2009,06,23,15,17,17.50
2009,06,23,15,18,17.70
2009,06,23,15,19,17.80
2009,06,23,15,20,17.90
2009,06,23,15,21,17.90
2009,06,23,15,22,17.90
2009,06,23,15,23,17.90
2009,06,23,15,24,18.00
2009,06,23,15,25,18.20
2009,06,23,15,26,18.20
2009,06,23,15,27,18.20
2009,06,23,15,28,18.20
2009,06,23,15,29,18.30
2009,06,23,15,30,18.40
2009,06,23,15,31,18.60
2009,06,23,15,32,18.70
2009,06,23,15,33,18.80
2009,06,23,15,34,18.90
2009,06,23,15,35,19.10
2009,06,23,15,36,19.20
2009,06,23,15,37,19.20
2009,06,23,15,38,19.30
2009,06,23,15,39,19.30
2009,06,23,15,40,19.20
2009,06,23,15,41,19.10
2009,06,23,15,42,19.10
2009,06,23,15,43,19.10
2009,06,23,15,44,19.10
2009,06,23,15,45,19.20
2009,06,23,15,46,19.30
2009,06,23,15,47,19.30
2009,06,23,15,48,19.30
2009,06,23,15,49,19.40
2009,06,23,15,50,19.50
2009,06,23,15,51,19.50
2009,06,23,15,52,19.60
2009,06,23,15,53,19.60
2009,06,23,15,54,19.80
2009,06,23,15,55,19.80
2009,06,23,15,56,19.70
2009,06,23,15,57,19.70
2009,06,23,15,58,19.80
2009,06,23,15,59,19.70
2009,06,23,16,00,19.70
2009,06,23,16,01,19.60
2009,06,23,16,02,19.60
2009,06,23,16,03,19.70
2009,06,23,16,04,19.60
2009,06,23,16,05,19.60
2009,06,23,16,06,19.60
2009,06,23,16,07,19.50
2009,06,23,16,08,19.60
2009,06,23,16,09,19.60
2009,06,23,16,10,19.70
2009,06,23,16,11,19.80
2009,06,23,16,12,19.80
2009,06,23,16,13,19.80
2009,06,23,16,14,19.90
2009,06,23,16,15,19.90
2009,06,23,16,16,19.90
2009,06,23,16,17,19.90
2009,06,23,16,18,19.70
2009,06,23,16,19,19.70
2009,06,23,16,20,19.60
2009,06,23,16,21,19.60
2009,06,23,16,22,19.50
2009,06,23,16,23,19.40
2009,06,23,16,24,19.30
2009,06,23,16,25,19.30
2009,06,23,16,26,19.40
2009,06,23,16,27,19.30
2009,06,23,16,28,19.30
2009,06,23,16,29,19.20
2009,06,23,16,30,19.10
2009,06,23,16,31,19.10
2009,06,23,16,32,19.10
2009,06,23,16,33,19.10
2009,06,23,16,34,19.10
2009,06,23,16,35,19.00
2009,06,23,16,36,19.10
2009,06,23,16,37,19.00
2009,06,23,16,38,18.90
2009,06,23,16,39,19.00
2009,06,23,16,40,19.10
2009,06,23,16,41,19.10
2009,06,23,16,42,19.30
2009,06,23,16,43,19.30
2009,06,23,16,44,19.30
2009,06,23,16,45,19.20
2009,06,23,16,46,19.10
2009,06,23,16,47,19.10
2009,06,23,16,48,19.10
2009,06,23,16,49,19.10
2009,06,23,16,50,19.20
2009,06,23,16,51,19.30
2009,06,23,16,52,19.40
2009,06,23,16,53,19.40
2009,06,23,16,54,19.50
2009,06,23,16,55,19.50
2009,06,23,16,56,19.50
2009,06,23,16,57,19.40
2009,06,23,16,58,19.30
2009,06,23,16,59,19.20
2009,06,23,17,00,19.20
2009,06,23,17,01,19.30
2009,06,23,17,02,19.30
2009,06,23,17,03,19.30
2009,06,23,17,04,19.30
2009,06,23,17,05,19.30
2009,06,23,17,06,19.30
2009,06,23,17,07,19.20
2009,06,23,17,08,19.20
2009,06,23,17,09,19.10
2009,06,23,17,10,19.10
2009,06,23,17,11,19.20
2009,06,23,17,12,19.20
2009,06,23,17,13,19.00
2009,06,23,17,14,18.90
2009,06,23,17,15,18.90
2009,06,23,17,16,19.00
2009,06,23,17,17,19.10
2009,06,23,17,18,19.10
2009,06,23,17,19,19.20
2009,06,23,17,20,19.30
2009,06,23,17,21,19.40
2009,06,23,17,22,19.50
2009,06,23,17,23,19.50
2009,06,23,17,24,19.50
2009,06,23,17,25,19.50
2009,06,23,17,26,19.60
2009,06,23,17,27,19.60
2009,06,23,17,28,19.70
2009,06,23,17,29,19.60